JES1206 SABE-SARC

Flight info

Callsign JES1206
Flight time 1h 25m
Altitude 37000
Route LANDA4B LANDA UN785 GUA UL793 KILIP KILIP2V
Aircraft A320/M-SDE3FGHIRWY/LB1

Departure

Time 2026-04-26 06:31
Airport Aeroparque Jorge Newbery (SABE)

Arrival

Time 2026-04-26 07:57
Airport Corrientes Airport (SARC)
Time Latitude Longitude Altitude Speed Heading
2026-04-26 06:04 -34.55820 -58.41213 31 ft 0 kts 39°
2026-04-26 06:22 -34.55834 -58.41226 25 ft 4 kts 33°
2026-04-26 06:23 -34.55854 -58.41237 27 ft 4 kts 338°
2026-04-26 06:23 -34.55869 -58.41220 26 ft 4 kts 309°
2026-04-26 06:23 -34.55881 -58.41203 29 ft 0 kts 310°
2026-04-26 06:27 -34.55869 -58.41221 29 ft 6 kts 306°
2026-04-26 06:27 -34.55870 -58.41280 29 ft 8 kts 227°
2026-04-26 06:27 -34.55906 -58.41331 25 ft 8 kts 266°
2026-04-26 06:27 -34.55878 -58.41412 28 ft 14 kts 297°
2026-04-26 06:28 -34.55831 -58.41525 29 ft 16 kts 297°
2026-04-26 06:28 -34.55779 -58.41647 28 ft 17 kts 296°
2026-04-26 06:28 -34.55725 -58.41780 27 ft 18 kts 296°
2026-04-26 06:28 -34.55652 -58.41910 29 ft 19 kts 306°
2026-04-26 06:29 -34.55574 -58.42047 28 ft 20 kts 304°
2026-04-26 06:29 -34.55487 -58.42185 28 ft 21 kts 308°
2026-04-26 06:29 -34.55406 -58.42315 28 ft 20 kts 309°
2026-04-26 06:29 -34.55367 -58.42400 27 ft 11 kts 283°
2026-04-26 06:30 -34.55371 -58.42492 27 ft 11 kts 237°
2026-04-26 06:30 -34.55426 -58.42472 29 ft 10 kts 123°
2026-04-26 06:30 -34.55507 -58.42326 28 ft 47 kts 124°
2026-04-26 06:30 -34.55807 -58.41789 24 ft 104 kts 124°
2026-04-26 06:31 -34.56300 -58.40906 27 ft 146 kts 124°
2026-04-26 06:31 -34.56923 -58.39816 302 ft 157 kts 124°
2026-04-26 06:31 -34.57527 -58.38717 774 ft 160 kts 120°
2026-04-26 06:31 -34.57952 -58.37423 1125 ft 175 kts 103°
2026-04-26 06:32 -34.58065 -58.35923 1582 ft 182 kts 91°
2026-04-26 06:32 -34.58059 -58.34351 1891 ft 195 kts 90°
2026-04-26 06:32 -34.57964 -58.32633 2068 ft 215 kts 75°
2026-04-26 06:32 -34.57293 -58.30937 2222 ft 235 kts 47°
2026-04-26 06:33 -34.55989 -58.29633 2474 ft 254 kts 28°
2026-04-26 06:33 -34.54426 -58.28475 2902 ft 269 kts 28°
2026-04-26 06:33 -34.52795 -58.27317 3607 ft 272 kts 20°
2026-04-26 06:33 -34.51042 -58.26678 4473 ft 259 kts
2026-04-26 06:34 -34.49242 -58.26685 5056 ft 260 kts 344°
2026-04-26 06:34 -34.47535 -58.27353 5784 ft 256 kts 328°
2026-04-26 06:34 -34.46046 -58.28511 6539 ft 254 kts 321°
2026-04-26 06:34 -34.44582 -58.29739 7267 ft 256 kts 321°
2026-04-26 06:35 -34.43104 -58.30966 7978 ft 259 kts 321°
2026-04-26 06:35 -34.41633 -58.32188 8648 ft 262 kts 320°
2026-04-26 06:35 -34.40120 -58.33448 9324 ft 265 kts 320°
2026-04-26 06:35 -34.38594 -58.34719 9980 ft 268 kts 320°
2026-04-26 06:36 -34.37010 -58.36040 10239 ft 286 kts 320°
2026-04-26 06:36 -34.35305 -58.37465 10365 ft 307 kts 320°
2026-04-26 06:36 -34.33491 -58.38981 10499 ft 326 kts 321°
2026-04-26 06:36 -34.31590 -58.40560 10891 ft 334 kts 321°
2026-04-26 06:37 -34.29660 -58.42157 11421 ft 337 kts 321°
2026-04-26 06:37 -34.27737 -58.43745 11960 ft 340 kts 321°
2026-04-26 06:37 -34.25771 -58.45373 12495 ft 343 kts 320°
2026-04-26 06:37 -34.23791 -58.47010 13055 ft 346 kts 320°
2026-04-26 06:38 -34.21795 -58.48661 13625 ft 349 kts 320°
2026-04-26 06:38 -34.19783 -58.50324 14127 ft 352 kts 320°
2026-04-26 06:38 -34.17756 -58.51997 14619 ft 354 kts 320°
2026-04-26 06:38 -34.15720 -58.53679 15110 ft 356 kts 320°
2026-04-26 06:39 -34.13590 -58.55245 15566 ft 364 kts 328°
2026-04-26 06:39 -34.11172 -58.56289 16032 ft 375 kts 340°
2026-04-26 06:39 -34.08543 -58.56695 16458 ft 387 kts 351°
2026-04-26 06:39 -34.05831 -58.56824 16890 ft 391 kts 351°
2026-04-26 06:40 -34.03135 -58.56946 17333 ft 394 kts 350°
2026-04-26 06:40 -34.00385 -58.57070 17786 ft 397 kts 350°
2026-04-26 06:40 -33.97619 -58.57197 18232 ft 400 kts 350°
2026-04-26 06:40 -33.94825 -58.57330 18632 ft 402 kts 350°
2026-04-26 06:41 -33.92015 -58.57466 19057 ft 405 kts 350°
2026-04-26 06:41 -33.89195 -58.57601 19483 ft 407 kts 350°
2026-04-26 06:41 -33.86352 -58.57733 19879 ft 410 kts 350°
2026-04-26 06:41 -33.83495 -58.57861 20281 ft 412 kts 350°
2026-04-26 06:42 -33.80619 -58.57985 20669 ft 415 kts 350°
2026-04-26 06:42 -33.77730 -58.58108 21059 ft 417 kts 350°
2026-04-26 06:42 -33.74825 -58.58233 21435 ft 419 kts 350°
2026-04-26 06:42 -33.72892 -58.58318 21678 ft 420 kts 349°
2026-04-26 06:43 -33.69961 -58.58446 22033 ft 423 kts 349°
2026-04-26 06:43 -33.67012 -58.58577 22393 ft 425 kts 349°
2026-04-26 06:43 -33.64049 -58.58706 22721 ft 427 kts 349°
2026-04-26 06:43 -33.60104 -58.58878 23213 ft 429 kts 349°
2026-04-26 06:44 -33.58083 -58.58964 23446 ft 431 kts 349°
2026-04-26 06:44 -33.55116 -58.59088 23737 ft 433 kts 349°
2026-04-26 06:44 -33.52095 -58.59215 24044 ft 434 kts 349°
2026-04-26 06:44 -33.49072 -58.59343 24364 ft 434 kts 349°
2026-04-26 06:45 -33.46051 -58.59474 24682 ft 435 kts 349°
2026-04-26 06:45 -33.43017 -58.59604 24987 ft 436 kts 349°
2026-04-26 06:45 -33.39983 -58.59735 25290 ft 436 kts 348°
2026-04-26 06:45 -33.36946 -58.59867 25621 ft 437 kts 348°
2026-04-26 06:46 -33.33903 -58.59998 25943 ft 438 kts 348°
2026-04-26 06:46 -33.30852 -58.60130 26270 ft 438 kts 348°
2026-04-26 06:46 -33.27807 -58.60260 26723 ft 436 kts 348°
2026-04-26 06:46 -33.24781 -58.60387 27202 ft 433 kts 347°
2026-04-26 06:47 -33.21773 -58.60513 27681 ft 430 kts 347°
2026-04-26 06:47 -33.18830 -58.60637 28089 ft 427 kts 346°
2026-04-26 06:47 -33.15874 -58.60761 28627 ft 423 kts 346°
2026-04-26 06:47 -33.12944 -58.60884 29139 ft 419 kts 345°
2026-04-26 06:48 -33.10027 -58.61010 29649 ft 416 kts 345°
2026-04-26 06:48 -33.07140 -58.61138 30114 ft 414 kts 345°
2026-04-26 06:48 -33.04269 -58.61264 30485 ft 412 kts 344°
2026-04-26 06:48 -33.01408 -58.61387 30823 ft 411 kts 344°
2026-04-26 06:49 -32.98558 -58.61540 31152 ft 408 kts 343°
2026-04-26 06:49 -32.95730 -58.61759 31450 ft 406 kts 342°
2026-04-26 06:49 -32.92954 -58.62010 31785 ft 404 kts 341°
2026-04-26 06:49 -32.90150 -58.62280 32126 ft 403 kts 341°
2026-04-26 06:50 -32.87349 -58.62547 32472 ft 403 kts 341°
2026-04-26 06:50 -32.84560 -58.62799 32812 ft 402 kts 341°
2026-04-26 06:50 -32.81769 -58.63040 33153 ft 402 kts 341°
2026-04-26 06:50 -32.78976 -58.63272 33482 ft 401 kts 341°
2026-04-26 06:51 -32.76194 -58.63500 33793 ft 400 kts 341°
2026-04-26 06:51 -32.70642 -58.63956 34331 ft 397 kts 340°
2026-04-26 06:51 -32.67890 -58.64183 34582 ft 396 kts 340°
2026-04-26 06:52 -32.65144 -58.64414 34810 ft 395 kts 340°
2026-04-26 06:52 -32.62435 -58.64647 35024 ft 395 kts 340°
2026-04-26 06:52 -32.59657 -58.64885 35230 ft 395 kts 340°
2026-04-26 06:52 -32.56948 -58.65114 35429 ft 395 kts 340°
2026-04-26 06:53 -32.54207 -58.65342 35631 ft 395 kts 340°
2026-04-26 06:53 -32.51470 -58.65570 35785 ft 394 kts 340°
2026-04-26 06:53 -32.48737 -58.65796 36016 ft 393 kts 340°
2026-04-26 06:53 -32.46013 -58.66024 36225 ft 393 kts 340°
2026-04-26 06:54 -32.43285 -58.66253 36415 ft 392 kts 340°
2026-04-26 06:54 -32.40560 -58.66483 36609 ft 392 kts 340°
2026-04-26 06:54 -32.37844 -58.66713 36780 ft 392 kts 340°
2026-04-26 06:54 -32.35125 -58.66943 36915 ft 392 kts 340°
2026-04-26 06:55 -32.29665 -58.67392 36939 ft 394 kts 340°
2026-04-26 06:55 -32.24200 -58.67834 36942 ft 394 kts 340°
2026-04-26 06:56 -32.18732 -58.68274 36945 ft 394 kts 340°
2026-04-26 06:56 -32.13253 -58.68714 36945 ft 394 kts 340°
2026-04-26 06:57 -32.07785 -58.69155 36946 ft 394 kts 340°
2026-04-26 06:57 -32.02346 -58.69589 36930 ft 394 kts 340°
2026-04-26 06:58 -31.96876 -58.70035 36956 ft 394 kts 340°
2026-04-26 06:58 -31.91402 -58.70483 36968 ft 394 kts 340°
2026-04-26 06:59 -31.85967 -58.70919 36963 ft 393 kts 340°
2026-04-26 06:59 -31.80508 -58.71360 36927 ft 393 kts 340°
2026-04-26 07:00 -31.75054 -58.71797 36944 ft 392 kts 340°
2026-04-26 07:00 -31.69594 -58.72237 36957 ft 392 kts 340°
2026-04-26 07:01 -31.64143 -58.72671 36961 ft 392 kts 340°
2026-04-26 07:01 -31.58728 -58.73101 36926 ft 391 kts 339°
2026-04-26 07:02 -31.53296 -58.73534 36950 ft 391 kts 339°
2026-04-26 07:02 -31.47863 -58.73973 36960 ft 391 kts 339°
2026-04-26 07:03 -31.42443 -58.74405 36965 ft 391 kts 340°
2026-04-26 07:03 -31.37011 -58.74833 36918 ft 391 kts 339°
2026-04-26 07:04 -31.31589 -58.75265 36941 ft 390 kts 339°
2026-04-26 07:04 -31.26209 -58.75699 36957 ft 390 kts 339°
2026-04-26 07:05 -31.20785 -58.76131 36965 ft 390 kts 339°
2026-04-26 07:05 -31.15357 -58.76557 36967 ft 390 kts 339°
2026-04-26 07:06 -31.09937 -58.76988 36947 ft 391 kts 339°
2026-04-26 07:06 -31.04537 -58.77425 36963 ft 391 kts 339°
2026-04-26 07:07 -30.99101 -58.77840 36965 ft 391 kts 339°
2026-04-26 07:07 -30.93668 -58.78266 36969 ft 391 kts 339°
2026-04-26 07:08 -30.88249 -58.78723 36935 ft 390 kts 339°
2026-04-26 07:08 -30.82834 -58.79210 36949 ft 390 kts 339°
2026-04-26 07:09 -30.77409 -58.79688 36959 ft 391 kts 339°
2026-04-26 07:09 -30.71977 -58.80143 36970 ft 391 kts 339°
2026-04-26 07:11 -30.58421 -58.81305 36959 ft 393 kts 339°
2026-04-26 07:11 -30.52963 -58.81777 36977 ft 393 kts 339°
2026-04-26 07:12 -30.47502 -58.82241 36981 ft 393 kts 339°
2026-04-26 07:12 -30.42067 -58.82671 36927 ft 394 kts 340°
2026-04-26 07:13 -30.36588 -58.83092 36944 ft 394 kts 340°
2026-04-26 07:13 -30.31114 -58.83513 36955 ft 394 kts 340°
2026-04-26 07:14 -30.25633 -58.83947 36962 ft 394 kts 339°
2026-04-26 07:14 -30.20157 -58.84391 36966 ft 395 kts 340°
2026-04-26 07:15 -30.14672 -58.84828 36928 ft 395 kts 340°
2026-04-26 07:15 -30.09215 -58.85253 36942 ft 396 kts 340°
2026-04-26 07:16 -30.03714 -58.85689 36953 ft 396 kts 340°
2026-04-26 07:16 -29.98210 -58.86119 36960 ft 396 kts 340°
2026-04-26 07:17 -29.92693 -58.86546 36965 ft 397 kts 340°
2026-04-26 07:17 -29.87179 -58.86982 36967 ft 397 kts 340°
2026-04-26 07:18 -29.81666 -58.87416 36968 ft 397 kts 340°
2026-04-26 07:18 -29.76149 -58.87854 36969 ft 397 kts 340°
2026-04-26 07:19 -29.70624 -58.88284 36913 ft 398 kts 340°
2026-04-26 07:19 -29.65094 -58.88708 36922 ft 399 kts 340°
2026-04-26 07:20 -29.59580 -58.89144 36936 ft 399 kts 340°
2026-04-26 07:20 -29.54026 -58.89589 36948 ft 400 kts 340°
2026-04-26 07:21 -29.48461 -58.90015 36964 ft 401 kts 340°
2026-04-26 07:21 -29.42889 -58.90445 36923 ft 401 kts 341°
2026-04-26 07:22 -29.37350 -58.90895 36939 ft 402 kts 340°
2026-04-26 07:22 -29.31760 -58.91348 36952 ft 403 kts 341°
2026-04-26 07:23 -29.26157 -58.91793 36960 ft 403 kts 341°
2026-04-26 07:23 -29.20554 -58.92231 36931 ft 403 kts 341°
2026-04-26 07:24 -29.14938 -58.92669 36947 ft 405 kts 341°
2026-04-26 07:24 -29.09349 -58.93094 36971 ft 405 kts 341°
2026-04-26 07:24 -29.06533 -58.93314 36821 ft 406 kts 341°
2026-04-26 07:25 -29.03718 -58.93543 36571 ft 405 kts 341°
2026-04-26 07:25 -29.00905 -58.93762 36327 ft 405 kts 341°
2026-04-26 07:25 -28.98090 -58.93980 36040 ft 405 kts 342°
2026-04-26 07:25 -28.95275 -58.94202 35794 ft 406 kts 342°
2026-04-26 07:26 -28.92446 -58.94423 35550 ft 407 kts 342°
2026-04-26 07:26 -28.89612 -58.94637 35312 ft 407 kts 342°
2026-04-26 07:26 -28.86785 -58.94849 35068 ft 407 kts 342°
2026-04-26 07:26 -28.84003 -58.95061 34628 ft 405 kts 342°
2026-04-26 07:27 -28.81188 -58.95285 34112 ft 405 kts 342°
2026-04-26 07:27 -28.78382 -58.95506 33586 ft 404 kts 342°
2026-04-26 07:27 -28.75580 -58.95723 33102 ft 402 kts 342°
2026-04-26 07:27 -28.72804 -58.95938 32580 ft 399 kts 342°
2026-04-26 07:28 -28.70043 -58.96151 32130 ft 395 kts 342°
2026-04-26 07:28 -28.67303 -58.96367 31648 ft 393 kts 342°
2026-04-26 07:28 -28.65495 -58.96507 31319 ft 392 kts 343°
2026-04-26 07:28 -28.62769 -58.96712 30828 ft 391 kts 343°
2026-04-26 07:29 -28.59177 -58.96979 30167 ft 389 kts 343°
2026-04-26 07:29 -28.57354 -58.97119 29793 ft 388 kts 343°
2026-04-26 07:29 -28.54663 -58.97332 29273 ft 388 kts 343°
2026-04-26 07:29 -28.51971 -58.97550 28758 ft 387 kts 343°
2026-04-26 07:30 -28.49292 -58.97759 28271 ft 385 kts 343°
2026-04-26 07:30 -28.46624 -58.97959 27747 ft 383 kts 344°
2026-04-26 07:30 -28.43966 -58.98155 27259 ft 382 kts 344°
2026-04-26 07:30 -28.41314 -58.98354 26757 ft 380 kts 344°
2026-04-26 07:31 -28.38683 -58.98557 26261 ft 379 kts 345°
2026-04-26 07:31 -28.36054 -58.98747 25772 ft 380 kts 347°
2026-04-26 07:31 -28.33368 -58.98582 25270 ft 387 kts 352°
2026-04-26 07:31 -28.30712 -58.98385 24778 ft 388 kts 353°
2026-04-26 07:32 -28.28018 -58.98147 24283 ft 389 kts 353°
2026-04-26 07:32 -28.25313 -58.97892 23790 ft 390 kts 354°
2026-04-26 07:32 -28.22606 -58.97642 23236 ft 389 kts 354°
2026-04-26 07:32 -28.19920 -58.97404 22781 ft 386 kts 354°
2026-04-26 07:33 -28.17246 -58.97180 22320 ft 383 kts 354°
2026-04-26 07:33 -28.14595 -58.96964 21874 ft 380 kts 354°
2026-04-26 07:33 -28.11968 -58.96751 21436 ft 377 kts 354°
2026-04-26 07:33 -28.09363 -58.96539 21007 ft 374 kts 354°
2026-04-26 07:34 -28.06770 -58.96329 20572 ft 371 kts 354°
2026-04-26 07:34 -28.04198 -58.96122 20138 ft 369 kts 354°
2026-04-26 07:34 -28.01679 -58.95921 19710 ft 366 kts 355°
2026-04-26 07:34 -27.99138 -58.95719 19262 ft 365 kts 355°
2026-04-26 07:35 -27.96606 -58.95519 18810 ft 364 kts 355°
2026-04-26 07:35 -27.94082 -58.95320 18368 ft 363 kts 356°
2026-04-26 07:35 -27.91558 -58.95120 17862 ft 363 kts 356°
2026-04-26 07:35 -27.89047 -58.94919 17395 ft 361 kts 356°
2026-04-26 07:36 -27.86551 -58.94715 16913 ft 359 kts 357°
2026-04-26 07:36 -27.84059 -58.94512 16439 ft 358 kts 357°
2026-04-26 07:36 -27.81582 -58.94312 15974 ft 357 kts 358°
2026-04-26 07:36 -27.79107 -58.94112 15489 ft 356 kts 358°
2026-04-26 07:37 -27.76666 -58.93917 15016 ft 355 kts 358°
2026-04-26 07:37 -27.74202 -58.93721 14528 ft 355 kts 359°
2026-04-26 07:37 -27.71729 -58.93522 14044 ft 356 kts 359°
2026-04-26 07:37 -27.69261 -58.93326 13521 ft 356 kts
2026-04-26 07:38 -27.66788 -58.93128 13008 ft 355 kts
2026-04-26 07:38 -27.64335 -58.92930 12522 ft 353 kts
2026-04-26 07:38 -27.61886 -58.92734 12022 ft 352 kts
2026-04-26 07:38 -27.59444 -58.92540 11532 ft 350 kts
2026-04-26 07:39 -27.57018 -58.92347 11037 ft 349 kts
2026-04-26 07:39 -27.54598 -58.92150 10555 ft 347 kts
2026-04-26 07:39 -27.52255 -58.91958 10400 ft 336 kts
2026-04-26 07:39 -27.49965 -58.91770 10281 ft 324 kts
2026-04-26 07:40 -27.47771 -58.91365 10163 ft 316 kts
2026-04-26 07:40 -27.45657 -58.90837 10045 ft 306 kts
2026-04-26 07:40 -27.43610 -58.90330 9911 ft 297 kts
2026-04-26 07:40 -27.41596 -58.89836 9616 ft 295 kts
2026-04-26 07:41 -27.39596 -58.89344 9248 ft 294 kts
2026-04-26 07:41 -27.37592 -58.88850 8896 ft 294 kts
2026-04-26 07:41 -27.35598 -58.88361 8553 ft 293 kts
2026-04-26 07:41 -27.33608 -58.87873 8217 ft 292 kts
2026-04-26 07:42 -27.31632 -58.87330 7874 ft 293 kts 16°
2026-04-26 07:42 -27.29744 -58.86532 7545 ft 293 kts 18°
2026-04-26 07:42 -27.27831 -58.85717 7220 ft 293 kts 18°
2026-04-26 07:42 -27.25954 -58.84902 7093 ft 285 kts 22°
2026-04-26 07:43 -27.24414 -58.83565 6963 ft 280 kts 54°
2026-04-26 07:43 -27.23778 -58.81557 6844 ft 272 kts 90°
2026-04-26 07:43 -27.24175 -58.79542 6658 ft 263 kts 118°
2026-04-26 07:43 -27.25036 -58.77685 6030 ft 276 kts 122°
2026-04-26 07:44 -27.26224 -58.75938 5290 ft 289 kts 139°
2026-04-26 07:44 -27.27925 -58.74657 4521 ft 300 kts 158°
2026-04-26 07:44 -27.29954 -58.74075 3723 ft 312 kts 176°
2026-04-26 07:44 -27.32152 -58.74242 2890 ft 323 kts 187°
2026-04-26 07:45 -27.34411 -58.74603 2098 ft 331 kts 187°
2026-04-26 07:45 -27.36686 -58.74964 1593 ft 328 kts 187°
2026-04-26 07:45 -27.38891 -58.75304 1153 ft 310 kts 187°
2026-04-26 07:45 -27.40966 -58.75623 769 ft 293 kts 188°
2026-04-26 07:46 -27.42942 -58.75929 398 ft 284 kts 189°
2026-04-26 07:46 -27.44911 -58.76246 1046 ft 287 kts 188°
2026-04-26 07:46 -27.46941 -58.76582 1774 ft 303 kts 187°
2026-04-26 07:46 -27.49084 -58.76916 2376 ft 319 kts 187°
2026-04-26 07:47 -27.51300 -58.77249 2623 ft 313 kts 186°
2026-04-26 07:47 -27.53345 -58.77518 2852 ft 286 kts 180°
2026-04-26 07:47 -27.55170 -58.77007 2975 ft 264 kts 147°
2026-04-26 07:47 -27.56319 -58.75511 3001 ft 249 kts 111°
2026-04-26 07:48 -27.56408 -58.73644 3001 ft 238 kts 72°
2026-04-26 07:48 -27.55442 -58.72174 3009 ft 239 kts 33°
2026-04-26 07:48 -27.53903 -58.71435 3009 ft 243 kts 18°
2026-04-26 07:48 -27.52282 -58.70887 3007 ft 243 kts 18°
2026-04-26 07:49 -27.50658 -58.70341 3009 ft 243 kts 18°
2026-04-26 07:49 -27.49029 -58.69794 3009 ft 244 kts 18°
2026-04-26 07:49 -27.47408 -58.69248 3008 ft 243 kts 20°
2026-04-26 07:50 -27.44367 -58.67650 3008 ft 242 kts 30°
2026-04-26 07:50 -27.42895 -58.66734 3008 ft 242 kts 31°
2026-04-26 07:50 -27.41419 -58.65812 3007 ft 242 kts 30°
2026-04-26 07:50 -27.39942 -58.64901 3007 ft 242 kts 30°
2026-04-26 07:51 -27.38458 -58.63994 3006 ft 242 kts 30°
2026-04-26 07:51 -27.36976 -58.63086 3005 ft 242 kts 30°
2026-04-26 07:51 -27.35495 -58.62183 3005 ft 242 kts 30°
2026-04-26 07:51 -27.33927 -58.61479 2954 ft 245 kts 11°
2026-04-26 07:52 -27.32248 -58.61595 2766 ft 240 kts 341°
2026-04-26 07:52 -27.30857 -58.62525 2706 ft 228 kts 314°
2026-04-26 07:52 -27.29991 -58.63966 2656 ft 222 kts 289°
2026-04-26 07:52 -27.29496 -58.65571 2607 ft 220 kts 287°
2026-04-26 07:53 -27.28999 -58.67189 2547 ft 219 kts 287°
2026-04-26 07:53 -27.28609 -58.68834 2504 ft 216 kts 273°
2026-04-26 07:53 -27.28694 -58.70506 2459 ft 214 kts 253°
2026-04-26 07:53 -27.29257 -58.72033 2417 ft 211 kts 234°
2026-04-26 07:54 -27.30219 -58.73253 2373 ft 208 kts 215°
2026-04-26 07:54 -27.31470 -58.74046 2326 ft 206 kts 197°
2026-04-26 07:54 -27.32869 -58.74375 2240 ft 206 kts 186°
2026-04-26 07:54 -27.34287 -58.74592 2019 ft 205 kts 186°
2026-04-26 07:55 -27.35681 -58.74805 1767 ft 203 kts 186°
2026-04-26 07:55 -27.37076 -58.75021 1519 ft 199 kts 186°
2026-04-26 07:55 -27.38398 -58.75226 1250 ft 185 kts 186°
2026-04-26 07:55 -27.39617 -58.75415 1037 ft 165 kts 186°
2026-04-26 07:56 -27.40703 -58.75577 795 ft 152 kts 187°
2026-04-26 07:56 -27.41744 -58.75732 588 ft 150 kts 188°
2026-04-26 07:56 -27.42774 -58.75896 428 ft 149 kts 189°
2026-04-26 07:56 -27.43804 -58.76061 245 ft 149 kts 189°
2026-04-26 07:57 -27.44717 -58.76205 214 ft 100 kts 187°
2026-04-26 07:57 -27.45118 -58.76267 212 ft 30 kts 188°
2026-04-26 07:57 -27.45313 -58.76299 216 ft 27 kts 186°
2026-04-26 07:57 -27.45447 -58.76304 213 ft 12 kts 161°
2026-04-26 07:58 -27.45457 -58.76324 216 ft 9 kts 351°
2026-04-26 07:58 -27.45341 -58.76304 217 ft 23 kts 10°
2026-04-26 07:58 -27.45164 -58.76271 217 ft 29 kts
2026-04-26 07:58 -27.44952 -58.76238 216 ft 31 kts
2026-04-26 07:59 -27.44799 -58.76212 212 ft 12 kts 18°
2026-04-26 07:59 -27.44791 -58.76130 215 ft 11 kts 100°
2026-04-26 07:59 -27.44801 -58.76046 220 ft 11 kts 95°
2026-04-26 07:59 -27.44806 -58.75997 213 ft 2 kts 98°
2026-04-26 08:00 -27.44813 -58.75938 214 ft 6 kts 97°
2026-04-26 08:00 -27.44814 -58.75933 214 ft 0 kts 96°
2026-04-26 08:00 -27.44815 -58.75924 214 ft 2 kts 96°
2026-04-26 08:00 -27.44817 -58.75905 218 ft 3 kts 96°
2026-04-26 08:01 -27.44814 -58.75875 219 ft 4 kts 81°
2026-04-26 08:01 -27.44821 -58.75853 217 ft 1 kts 175°
2026-04-26 08:01 -27.44828 -58.75866 215 ft 4 kts 231°
2026-04-26 08:01 -27.44848 -58.75870 214 ft 0 kts 150°